Regional Weather Roundup
Issued by NWS Wakefield, VA

Home | Current Version | Previous Version | Graphics & Text | Print | Product List | Glossary On
Versions: 1 2 3 4 5 6 7 8 9 10 11 12 13 14 15 16 17 18 19 20 21 22 23 24 25 26 27 28 29 30 31 32 33 34 35 36 37 38 39 40 41 42 43 44 45 46 47 48 49 50
000
ASUS41 KAKQ 251215
RWRAKQ

REGIONAL WEATHER ROUNDUP
NATIONAL WEATHER SERVICE WAKEFIELD VA
800 AM EDT SUN JUN 25 2017

Note: "fair" indicates few or no clouds below 12,000 feet with no
significant weather and/or obstructions to visibility. * = Denotes
station may not report precipitation (e.g., rain,snow,etc.),
thunder or fog.

VAZ042-051-052>054-056-251300-
NORTHERN VIRGINIA

CITY           SKY/WX    TMP DP  RH WIND       PRES   REMARKS
WASH NATIONAL  CLOUDY    77  60  55 NW8       30.03R
DULLES         CLOUDY    72  60  66 SW3       30.04R
FORT BELVOIR   CLOUDY    72  65  79 CALM      30.03R
QUANTICO       PTSUNNY   73  63  70 NW8       30.04R
FREDERICKSBRG* MOSUNNY   72  65  77 CALM      30.02R
STAFFORD*      MOSUNNY   70  66  89 CALM      30.07S
WARRENTON      PTSUNNY   68  62  79 CALM      30.04R
CULPEPER*      PTSUNNY   67  64  89 CALM      30.06R
MANASSAS*      PTSUNNY   67  65  93 CALM      30.04R
LEESBURG*      CLOUDY   N/A N/A N/A CALM      30.05R
WINCHESTER     MOSUNNY   68  59  73 SW3       30.06R
FRONT ROYAL*   MOSUNNY   64  61  88 S6        30.05S
LURAY*         MOSUNNY   63  61  94 CALM      30.08R
$$

VAZ048-049-060>072-079>083-251300-
CENTRAL AND SOUTH CENTRAL VIRGINIA

CITY           SKY/WX    TMP DP  RH WIND       PRES   REMARKS
RICHMOND       PTSUNNY   75  69  81 N6        30.02R
CHESTERFIELD*  NOT AVBL
PETERSBURG*    CLOUDY    73  64  73 NW7       30.03R
HANOVER        MOSUNNY   73  67  81 CALM      30.04R
TAPPAHANNOCK*  MOSUNNY   76  66  72 CALM      30.03R
QUINTON*       FAIR      75  71  87 N5        30.01R
CHARLOTTSVILLE PTSUNNY   69  60  73 W3        30.06R
GORDONSVILLE*  MOSUNNY   69  65  88 CALM      30.05R
ORANGE*        MOSUNNY   68  61  77 CALM      30.04S
LOUISA*        MOSUNNY   73  66  78 CALM      30.04R
BUMPASS*       FAIR      71  66  85 CALM      30.04R
FARMVILLE*     PTSUNNY   69  62  77 CALM      30.04S
CREWE*         PTSUNNY   72  63  72 NW5       30.04R
FORT PICKETT*  PTSUNNY  N/A N/A N/A W13       30.05R
CHASE CITY*    PTSUNNY   70  69  99 NW3       30.06R
CLARKSVILLE*   PTSUNNY   70  70 100 CALM      30.05R
SOUTH HILL*    MOSUNNY   73  69  89 CALM      30.10R
LAWRENCEVILLE* FAIR      73  69  87 CALM      30.04R
EMPORIA*       PTSUNNY   73  68  83 W3        30.04R
$$

VAZ088>098-251300-
SOUTHEAST VIRGINIA

CITY           SKY/WX    TMP DP  RH WIND       PRES   REMARKS
NORFOLK        MOSUNNY   77  72  84 SW7       30.00S
VIRGINIA BEACH PTSUNNY   74  71  91 SW6       30.00R
NORFOLK NAVAL  PTSUNNY   77  71  82 W5        30.02R
WEST POINT*    SUNNY     76  70  81 W3        30.03R
SALUDA*        FAIR      76  70  80 NW3       30.00R
NEWPORT NEWS   MOSUNNY   76  71  85 W5        30.01R
LANGLEY AFB    LGT RAIN  77  73  88 SW7       30.00R
FORT EUSTIS    MOSUNNY   76  71  85 W3        29.99R
WILLIAMSBURG*  MOSUNNY   75  73  94 CALM      30.02R
HR EXEC AP*    PTSUNNY   73  70  88 SW3       29.99R
FRANKLIN*      PTSUNNY   73  70  88 SW3       30.03R
US460-WAKEFLD  SUNNY     75  70  84 W6        30.01R
$$

VAZ020-022-025-037-045-251300-
WEST CENTRAL AND SOUTHWEST VIRGINIA

CITY           SKY/WX    TMP DP  RH WIND       PRES   REMARKS
STAUNTON*      MOSUNNY   61  58  90 CALM      30.12R
WAYNESBORO*    PTSUNNY   62  60  93 CALM      30.11R
HOT SPRINGS VA SUNNY     59  54  82 CALM      30.19R
LYNCHBURG      MOSUNNY   66  62  87 CALM      30.09R
DANVILLE       PTSUNNY   68  65  90 NW6       30.07R
SOUTH BOSTON*  PTSUNNY   71  69  93 NW3       30.06S
MARTINSVILLE   CLOUDY    64  62  94 CALM      30.13R
ROANOKE        PTSUNNY   68  60  75 NW6       30.13R
BLACKSBURG     MOSUNNY   62  58  87 CALM      30.19R
DUBLIN*        SUNNY     68  55  63 W7        30.18R
MARION*        PTSUNNY   64  58  79 SW3       30.22R
HILLSVILLE*    MOSUNNY   64  53  68 NW10      30.17R
RICHLANDS*     CLOUDY    61  57  88 CALM      30.22R
WISE*          CLOUDY    61  54  77 CALM      30.23R
ABINGDON*      CLOUDY    66  58  75 N5        30.19R
$$

MDZ021>025-VAZ099-100-251300-
SOUTHERN MARYLAND AND THE DELMARVA PENINSULA

CITY           SKY/WX    TMP DP  RH WIND       PRES   REMARKS
PATUXENT RIVER PTSUNNY   75  63  66 NW7       30.01S
BAY BRIDGE APT PTSUNNY   75  63  64 NW5       30.01R
LEONARDTOWN    MOSUNNY   72  63  73 W3        30.03S
DOVER          MOSUNNY   74  69  84 NW5       29.99R
GEORGETOWN     SUNNY     75  64  68 NW5       30.01R
EASTON         MOSUNNY   75  66  73 CALM      30.04R
CAMBRIDGE      PTSUNNY   73  70  88 CALM      30.01R
SALISBURY      SUNNY     77  68  73 NW9       30.00R
OCEAN CITY     SUNNY     76  67  73 NW7       30.00R
WALLOPS ISLAND SUNNY     79  67  66 NW6       30.00R
ACCOMACK*      SUNNY     80  71  72 N3        29.99S
$$

NCZ012>017-030>032-251300-
NORTH CENTRAL AND EASTERN NORTH CAROLINA

CITY           SKY/WX    TMP DP  RH WIND       PRES   REMARKS
ROANOKE RAPIDS CLOUDY    72  72 100 SW5       30.04R FOG
RALEIGH        PTSUNNY   74  72  93 VRB3      30.06R
ELIZABETH CITY CLOUDY    75  74  96 W3        30.02S
AHOSKIE*         N/A     70  70  99 CALM      30.03S FOG
EDENTON*       CLOUDY    76  72  88 CALM      30.03S
CURRITUCK*     CLOUDY    74  74 100 W3        30.02S
KILL DEVIL HLS LGT RAIN  76  76 100 W7        30.01R
MANTEO         CLOUDY    75  73  94 W6        30.03R
CAPE HATTERAS  CLOUDY    78  74  87 W6        30.03R
TARBORO*       NOT AVBL
GOLDSBORO      CLOUDY    74  74 100 NW3       30.03R
WASHINGTON     CLOUDY   N/A N/A N/A CALM      30.04R
GREENVILLE     CLOUDY    73  72  94 SW3       30.06R
NEW BERN       CLOUDY    76  75  97 W6        30.03S FOG
WILMINGTON     CLOUDY    77  75  93 W7        30.03S
$$

VAZ048-251300-
ELSEWHERE

CITY           SKY/WX    TMP DP  RH WIND       PRES   REMARKS
HARRISBURG PA  MOSUNNY   70  62  76 NW8       30.01R
BALTIMORE      CLOUDY    72  63  73 CALM      30.01R
ANNAPOLIS      PTSUNNY   71  63  75 W3        30.01R
ANDREWS AFB    CLOUDY    73  61  64 NW5       30.02R
PHILADELPHIA   PTSUNNY   75  62  64 CALM      30.00R
HENDERSON NC   MOSUNNY   69  65  88 CALM      30.06R
GREENSBORO     PTSUNNY   71  65  81 N5        30.08R
ROCKY MOUNT    CLOUDY    73  73 100 W3        30.05R
$$

VAZ100-251300-
MARINE

STATION/POSITION TIME  TEMP    WIND        PRES    WAVE   SWELL
                       AIR SEA DIR/SP/G            HT/PER HT/PER
                 (UTC) (F)     (DEG/KT/KT) (MB)    (FT/S) (FT/S)
BRANDYWINE LGT   1148           20/  8/  9   N/A
CAPE MAY NJ      1148   78 67   20/  3/  5 1015.3R
LEWES DE         1148   73 68  300/  6/  6 1015.7R
15NM E FENWICK I 1150   69 67  300/  6/  8 1015.8R   3/ 7   3/ 7
WACHAPREAGUE VA  1148   82 79  320/  2/  5 1015.3R
THOMAS POINT MD  1200   74 77  310/  6/  7   N/A
GOOSES REEF MD   1150   77     360/  8/  8 1017.0R
COVE POINT MD    1148   74     320/  4/  4 1016.8R
SOLOMONS ISLAND  1148   75 78  310/  3/  5   N/A
BISHOPS HEAD MD  1148   78 81  340/  8/ 11 1016.0R
PINEY POINT MD   1148          360/  9/ 10   N/A
POTOMAC MD       1150   77     350/  8/ 10 1015.1R
CAMBRIDGE MD     1148   78 81              1016.7R
LEWISETTA VA     1148   78 79  360/  5/  7 1015.9R
RAPPAHANNOCK LGT 1148          320/  6/  7 1016.4R
STINGRAY PT      1150   76     340/  6/  8 1016.1R
YORK RVR RNG VA  1148   76     290/  7/  8 1016.3R
YORKTOWN VA      1148   75 78  290/  4/  5 1015.7R
JAMESTOWN VA     1150   75     300/  8/ 10   N/A
DOMINION TERM VA 1148   75     290/  5/  6 1016.2R
KIPTOPEKE VA     1148      76  300/  7/  9   N/A
CHES BAY BRIDGE  1148   75 76  250/  9/ 10 1015.7R
CAPE HENRY VA    1148   75     240/  5/  8   N/A
WILLOUBY STN VA  1148   75     220/  7/  8 1015.9R
S CRANEY ISL VA  1148   75     230/  4/  5 1016.0R
CAPE HENRY BUOY  1130      71                N/A     2/ 8
1ST LANDING BUOY 1150   76                 1015.8R
CAPE CHARLES BUO 1151      64                N/A     2/ 9
64NM E OF VA BCH 1150   73 72  270/  8/  8 1016.4R   4/ 7   3/ 7
DUCK PIER NC     1148   75 59  280/  9/ 13 1016.2R
44100 DUCK FRF   1105      71                N/A     2/ 6
OREGON INLET NC  1148          260/  7/  9   N/A
HATTERAS NC      1148   77 78  240/  5/  8 1016.7R
DIAMOND SHLS NC  1150   79 80  250/ 16/ 17 1016.5R   5/ 7   2/ 9
CAPE LOOKOUT NC  1100   79     240/  6/  9 1016.4R
$$



USA.gov is the U.S. government's official web portal to all federal, state and local government web resources and services.